Location: Erfurt
(50.9688°N, 11.0193°E)
Time: 06:47:15
(UTC+01:00)

ISS - Pass Details

Date: 12 November 2017
Orbit: 402 x 407 km, 51.6° (Epoch: 22 November)

Event Time Altitude Azimuth Distance (km) Brightness Sun altitude
Exits shadow 04:19:51 15° 87° (E) 1,190 -0.7 -29.4°
Drops below altitude 10° 04:20:26 11° 88° (E) 1,424 -0.2 -29.3°
Sets 04:22:36 0° 90° (E) 2,316 1.2 -28.9°
